GW0410 Weather Reports


time (UTC)temp
F
wind
direction
speed
knots
gust
knots
rain 1hr
in
rain 24hr
in
rain mn
in
humidity
%
barometer
mb
20260508004020 55 84 0.0 0.0 0.00 0.00 0.00 89 1015.2
20260508003021 55 71 0.0 1.7 0.00 0.00 0.00 88 1015.5
20260508002033 55 0.0 0.0 0.00 0.00 0.00 87 1015.5
20260508001020 55 77 0.0 0.9 0.00 0.00 0.00 86 1015.1
20260508000036 56 74 0.0 0.9 0.00 0.00 0.00 84 1015.5
20260507235020 56 108 0.0 1.7 0.00 0.00 0.00 83 1015.5
20260507234031 56 79 0.0 3.5 0.00 0.00 0.00 82 1015.5
20260507233023 56 97 0.0 2.6 0.00 0.00 0.00 80 1015.1
20260507232027 56 100 0.0 0.9 0.00 0.00 0.00 79 1015.1
20260507231027 56 79 0.0 0.0 0.00 0.00 0.00 78 1015.5
20260507230031 57 99 0.0 0.9 0.00 0.00 0.00 76 1015.1
20260507225028 57 0.0 0.0 0.00 0.00 0.00 76 1015.1
20260507224026 56 107 0.0 2.6 0.00 0.00 0.00 76 1015.5
20260507223050 57 89 0.0 0.0 0.00 0.00 0.00 77 1014.8
20260507222048 56 231 0.0 0.9 0.00 0.00 0.00 78 1014.8
20260507221019 55 333 0.0 0.9 0.00 0.00 0.00 82 1014.8
20260507220532 54 0.0 0.0 0.00 0.00 0.00 90 1014.4
20260507215031 54 0.0 0.0 0.00 0.00 0.00 90 1014.4
20260507214019 54 255 0.0 0.0 0.00 0.00 0.00 90 1014.7
20260507213026 54 0.0 0.0 0.00 0.00 0.00 90 1014.7
20260507212024 54 0.0 0.0 0.00 0.00 0.00 89 1014.7
20260507211029 54 0.0 0.0 0.00 0.00 0.00 89 1014.4
20260507210030 54 0.0 0.0 0.00 0.00 0.00 89 1014.4
20260507205023 54 246 0.0 0.0 0.00 0.00 0.00 89 1014.4
20260507204029 55 0.0 0.0 0.00 0.00 0.00 88 1014.3
20260507203056 55 0.0 0.0 0.00 0.00 0.00 87 1013.9
20260507202020 55 0.0 0.0 0.00 0.00 0.00 87 1013.9
20260507201056 55 0.0 0.0 0.00 0.00 0.00 87 1013.9
20260507200058 55 0.0 0.0 0.00 0.00 0.00 86 1013.6
20260507195022 55 0.0 0.0 0.00 0.00 0.00 85 1013.6
20260507194020 55 96 0.0 0.0 0.00 0.00 0.00 85 1013.6
20260507193153 56 54 0.9 2.6 0.00 0.00 0.00 85 1013.6
20260507192051 57 85 0.0 1.7 0.00 0.00 0.00 82 1013.7
20260507191028 57 162 0.0 0.9 0.00 0.00 0.00 79 1013.7
20260507190024 58 244 0.0 2.6 0.00 0.00 0.00 77 1013.3
20260507185019 59 106 0.0 0.0 0.00 0.00 0.00 74 1013.4
20260507184021 59 225 0.0 0.0 0.00 0.00 0.00 70 1013.0
20260507183021 60 264 0.9 2.6 0.00 0.00 0.00 67 1013.0
20260507182022 60 299 0.9 4.3 0.00 0.00 0.00 66 1013.0
20260507181024 60 283 1.7 4.3 0.00 0.00 0.00 66 1012.6
20260507180029 60 259 0.9 2.6 0.00 0.00 0.00 67 1012.3
20260507175046 61 251 1.7 4.3 0.00 0.00 0.00 68 1012.4
20260507174034 61 255 1.7 5.2 0.00 0.00 0.00 66 1012.3
20260507173026 63 259 0.9 2.6 0.00 0.00 0.00 63 1012.0
20260507172027 64 298 0.0 1.7 0.00 0.00 0.00 60 1012.0
20260507171025 64 269 0.0 0.0 0.00 0.00 0.00 61 1012.0
20260507170023 65 0.0 0.0 0.00 0.00 0.00 60 1011.7
20260507165051 66 207 0.9 3.5 0.00 0.00 0.00 58 1011.7
20260507164019 67 217 0.0 1.7 0.00 0.00 0.00 55 1011.8
20260507163024 67 233 0.0 1.7 0.00 0.00 0.00 55 1011.4
20260507162033 67 221 0.0 0.0 0.00 0.00 0.00 54 1011.4
20260507161024 67 158 0.0 2.6 0.00 0.00 0.00 54 1011.3
20260507160036 67 196 0.9 4.3 0.00 0.00 0.00 53 1011.3
20260507155026 68 252 0.0 0.0 0.00 0.00 0.00 52 1011.4
20260507154023 69 170 0.0 3.5 0.00 0.00 0.00 50 1011.4
20260507153028 71 188 0.9 3.5 0.00 0.00 0.00 48 1011.5
20260507152031 71 151 0.9 3.5 0.00 0.00 0.00 48 1011.5
20260507151019 74 205 0.9 2.6 0.00 0.00 0.00 46 1011.9
20260507150022 72 215 0.0 1.7 0.00 0.00 0.00 47 1011.9
20260507145051 73 287 0.9 2.6 0.00 0.00 0.00 46 1011.9
20260507144027 70 225 1.7 3.5 0.00 0.00 0.00 49 1011.5
20260507143026 73 282 0.9 3.5 0.00 0.00 0.00 48 1012.0
20260507142035 77 254 1.7 6.1 0.00 0.00 0.00 45 1012.1
20260507141031 71 261 0.9 4.3 0.00 0.00 0.00 46 1011.9
20260507140026 70 264 0.9 3.5 0.00 0.00 0.00 51 1011.5
20260507135021 72 254 3.5 7.0 0.00 0.00 0.00 48 1011.6
20260507134019 75 238 1.7 5.2 0.00 0.00 0.00 46 1012.0
20260507133027 75 200 0.0 1.7 0.00 0.00 0.00 45 1012.0
20260507132031 74 229 1.7 4.3 0.00 0.00 0.00 46 1012.0
20260507131107 71 281 0.9 3.5 0.00 0.00 0.00 50 1012.3
20260507130024 71 258 0.9 4.3 0.00 0.00 0.00 51 1012.3
20260507125057 72 270 2.6 6.1 0.00 0.00 0.00 51 1012.3
20260507124021 73 275 0.9 3.5 0.00 0.00 0.00 50 1012.4
20260507123028 72 227 0.0 1.7 0.00 0.00 0.00 52 1012.7
20260507122033 69 192 0.9 3.5 0.00 0.00 0.00 54 1012.6
20260507121320 71 270 0.9 0.9 0.00 0.00 0.00 56 1013.0
20260507120046 69 277 0.0 2.6 0.00 0.00 0.00 55 1013.0
20260507115046 68 268 1.7 6.1 0.00 0.00 0.00 57 1013.0
20260507114022 66 270 2.6 5.2 0.00 0.00 0.00 59 1012.9
20260507113112 67 267 2.6 5.2 0.00 0.00 0.00 60 1012.9
20260507112022 67 261 0.9 4.3 0.00 0.00 0.00 60 1013.0
20260507111111 67 230 1.7 4.3 0.00 0.00 0.00 60 1012.9
20260507110046 68 254 1.7 5.2 0.00 0.00 0.00 59 1013.0
20260507105020 66 275 1.7 6.1 0.00 0.00 0.00 61 1012.9
20260507104025 66 262 1.7 3.5 0.00 0.00 0.00 62 1012.9
20260507103048 68 241 0.9 3.5 0.00 0.00 0.00 59 1013.0
20260507102049 69 255 1.7 6.1 0.00 0.00 0.00 58 1013.0
20260507101024 66 262 2.6 4.3 0.00 0.00 0.00 62 1012.6
20260507100530 66 253 2.6 5.2 0.00 0.00 0.00 63 1013.0
20260507095022 69 258 0.9 3.5 0.00 0.00 0.00 62 1013.1
20260507094030 69 239 0.0 3.5 0.00 0.00 0.00 61 1012.7
20260507093025 69 246 1.7 5.2 0.00 0.00 0.00 62 1012.7
20260507092100 68 236 0.9 4.3 0.00 0.00 0.00 61 1012.7
20260507091108 66 192 0.0 0.0 0.00 0.00 0.00 64 1012.3
20260507090058 67 250 1.7 4.3 0.00 0.00 0.00 66 1012.4
20260507085042 67 301 0.0 2.6 0.00 0.00 0.00 63 1012.4
20260507084038 66 236 0.9 4.3 0.00 0.00 0.00 67 1012.0
20260507083053 65 241 0.9 3.5 0.00 0.00 0.00 67 1012.0
20260507082024 63 250 0.9 2.6 0.00 0.00 0.00 71 1011.9
20260507081033 62 247 0.9 2.6 0.00 0.00 0.00 73 1011.9
20260507080053 62 271 0.9 2.6 0.00 0.00 0.00 74 1011.9
20260507075042 61 245 1.7 4.3 0.00 0.00 0.00 74 1011.9
20260507074051 62 253 2.6 5.2 0.00 0.00 0.00 75 1011.6
20260507073037 61 235 0.9 2.6 0.00 0.00 0.00 76 1011.9
20260507072033 61 266 0.9 2.6 0.00 0.00 0.00 77 1011.9
20260507071053 62 261 0.9 2.6 0.00 0.00 0.00 77 1011.6
20260507070112 61 254 0.9 2.6 0.00 0.00 0.00 78 1011.6
20260507065051 62 271 2.6 5.2 0.00 0.00 0.00 77 1011.6
20260507064044 60 243 0.9 3.5 0.00 0.00 0.00 79 1011.6
20260507063028 60 272 0.9 4.3 0.00 0.00 0.00 80 1011.6
20260507062043 60 274 0.9 3.5 0.00 0.00 0.00 81 1011.6
20260507061027 60 238 0.0 0.9 0.00 0.00 0.00 81 1011.3
20260507060032 61 247 0.0 1.7 0.00 0.00 0.00 81 1011.3
20260507055024 60 0.0 0.0 0.00 0.00 0.00 83 1011.3
20260507054023 58 0.0 0.0 0.00 0.00 0.00 86 1010.9
20260507053023 57 0.0 0.0 0.00 0.00 0.00 88 1010.6
20260507052059 56 320 0.0 0.0 0.00 0.00 0.00 89 1010.5
20260507051053 55 263 0.9 2.6 0.00 0.00 0.00 90 1010.2
20260507050036 55 269 0.9 3.5 0.00 0.00 0.00 90 1009.9
20260507045101 55 254 2.6 4.3 0.00 0.00 0.00 90 1009.9
20260507044051 55 253 1.7 3.5 0.00 0.00 0.00 90 1009.9
20260507043034 55 264 1.7 4.3 0.00 0.00 0.00 90 1009.6
20260507042025 55 264 1.7 4.3 0.00 0.00 0.00 90 1009.6
20260507041045 54 263 1.7 3.5 0.00 0.00 0.00 91 1009.5
20260507040028 54 256 0.0 2.6 0.00 0.00 0.00 91 1009.6
20260507035041 53 287 0.0 0.0 0.00 0.00 0.00 91 1009.6
20260507034023 53 251 0.0 0.0 0.00 0.00 0.00 89 1009.6
20260507033059 54 0.0 0.0 0.00 0.00 0.00 88 1009.3
20260507032022 54 0.0 0.0 0.00 0.00 0.00 88 1009.3
20260507031020 54 266 0.0 2.6 0.00 0.00 0.00 88 1009.0
20260507030034 54 279 0.0 1.7 0.00 0.00 0.00 87 1009.0
20260507025022 55 263 0.0 1.7 0.00 0.00 0.00 87 1008.9
20260507024022 55 137 0.0 0.0 0.00 0.00 0.00 86 1008.6
20260507023027 55 246 0.9 3.5 0.00 0.00 0.00 86 1009.0
20260507022021 55 246 0.9 2.6 0.00 0.00 0.00 85 1008.9
20260507021021 56 235 1.7 4.3 0.00 0.00 0.00 85 1008.7
20260507020026 56 259 1.7 5.2 0.00 0.00 0.00 84 1008.3
20260507015040 56 252 1.7 4.3 0.00 0.00 0.00 83 1008.3
20260507014034 56 242 3.5 6.1 0.00 0.00 0.00 84 1008.3
20260507013048 56 257 1.7 4.3 0.00 0.00 0.00 85 1008.2
20260507012033 56 0.0 0.0 0.00 0.00 0.00 84 1008.2
20260507011029 57 135 0.0 0.0 0.00 0.00 0.00 83 1007.6
20260507010031 57 115 0.0 0.0 0.00 0.00 0.00 82 1007.7
20260507005036 58 257 0.0 0.0 0.00 0.00 0.00 81 1007.7